This demonstration page uses our WeatherBlox Daily Observations layout. Learn more.

Left ArrowRight Arrow

39.29038, -76.61219

Hourly Observations for May 30, 2021

Temp ( °F °C ) Dew Point ( °F °C ) Humidity (%) Winds ( mph kmh ) Pressure ( in mb ) Visibility ( mi km ) Precip ( " mm )
12:54 am 00:54 Cloudy 51 10.6 46 7.8 83 83 NNE 12 19 30.11 1020 8 13 0.01 0.25
1:54 am 01:54 Cloudy 50 10 45 7.2 83 83 NNE 10 17 30.11 1020 10 16 N/A
2:54 am 02:54 Cloudy with Light Rain 50 10 45 7.2 83 83 NNE 10 17 30.10 1019 9 14 0.00 0.00
3:54 am 03:54 Cloudy with Light Rain 50 10 45 7.2 83 83 NNE 10 17 30.11 1020 6 10 0.01 0.25
4:54 am 04:54 Cloudy with Light Rain 49 9.4 45 7.2 86 86 NNE 8 13 30.13 1020 5 8 0.05 1.27
5:54 am 05:54 Cloudy with Light Rain 49 9.4 45 7.2 86 86 NNE 8 13 30.10 1019 4 6 0.05 1.27
6:24 am 06:24 Cloudy with Light Rain 49 9.4 45 7.2 86 86 N 6 9 30.11 1020 6 10 0.02 0.51
6:54 am 06:54 Cloudy with Light Rain 49 9.4 46 7.8 90 90 N 8 13 30.12 1020 7 11 0.02 0.51
7:54 am 07:54 Cloudy with Light Rain 50 10 46 7.8 86 86 N 8 13 30.14 1021 8 13 0.00 0.00
8:54 am 08:54 Cloudy with Light Rain 51 10.6 46 7.8 83 83 N 6 9 30.14 1021 9 14 0.01 0.25
9:54 am 09:54 Cloudy with Light Rain 52 11.1 47 8.3 83 83 NNE 9 15 30.14 1021 10 16 0.00 0.00
10:54 am 10:54 Cloudy 53 11.7 46 7.8 77 77 N 7 11 30.15 1021 10 16 0.00 0.00
11:54 am 11:54 Cloudy 54 12.2 47 8.3 77 77 NNW 8 13 30.14 1021 10 16 N/A
12:54 pm 12:54 Cloudy with Light Rain 54 12.2 47 8.3 77 77 N 7 11 30.15 1021 7 11 0.00 0.00
1:54 pm 13:54 Cloudy 56 13.3 48 8.9 75 75 NNW 10 17 30.14 1021 8 13 0.00 0.00
2:54 pm 14:54 Cloudy 56 13.3 47 8.3 72 72 N 7 11 30.14 1021 10 16 N/A
3:54 pm 15:54 Cloudy 55 12.8 46 7.8 72 72 N 8 13 30.14 1021 10 16 N/A
4:54 pm 16:54 Cloudy with Light Rain 54 12.2 47 8.3 77 77 VRB 3 6 30.16 1021 10 16 0.00 0.00
5:54 pm 17:54 Cloudy 55 12.8 49 9.4 80 80 N 5 7 30.15 1021 10 16 0.01 0.25
6:54 pm 18:54 Cloudy 55 12.8 48 8.9 77 77 NNW 6 9 30.16 1021 10 16 N/A
7:54 pm 19:54 Cloudy 54 12.2 48 8.9 80 80 NW 7 11 30.18 1022 10 16 N/A
8:54 pm 20:54 Cloudy 53 11.7 47 8.3 80 80 NW 5 7 30.19 1022 10 16 N/A
9:41 pm 21:41 Cloudy 53 11.7 47 8.3 80 80 WNW 3 6 30.20 1023 10 16 N/A
9:54 pm 21:54 Cloudy 54 12.2 47 8.3 77 77 N N/A 30.20 1023 10 16 N/A
10:54 pm 22:54 Cloudy 53 11.7 47 8.3 80 80 W 5 7 30.21 1023 10 16 N/A
11:54 pm 23:54 Mostly Cloudy 53 11.7 47 8.3 80 80 WSW 5 7 30.21 1023 10 16 N/A

Powered by AerisWeather